Time,TemperatureF,DewpointF,PressureIn,WindDirection,WindDirectionDegrees,WindSpeedMPH,WindSpeedGustMPH,Humidity,HourlyPrecipIn,Conditions,Clouds,dailyrainin,SoftwareType,DateUTC
2013-01-18 00:09:00,33.2,31.0,30.23,WNW,295,0.0,-999.0,93,-99.99,,,0.00,weatherlink.com 1.10,2013-01-18 05:09:00,
2013-01-18 00:24:00,32.7,31.0,30.24,WNW,295,0.0,-999.0,92,-99.99,,,0.00,weatherlink.com 1.10,2013-01-18 05:24:00,
2013-01-18 00:39:00,32.2,30.0,30.26,WNW,295,0.0,-999.0,92,-99.99,,,0.00,weatherlink.com 1.10,2013-01-18 05:39:00,
2013-01-18 00:54:00,31.9,30.0,30.27,WNW,295,0.0,-999.0,93,-99.99,,,0.00,weatherlink.com 1.10,2013-01-18 05:54:00,
2013-01-18 01:09:00,31.9,30.0,30.28,WNW,295,0.0,-999.0,93,-99.99,,,0.00,weatherlink.com 1.10,2013-01-18 06:09:00,
2013-01-18 01:24:00,31.6,30.0,30.29,WNW,295,0.0,-999.0,93,-99.99,,,0.00,weatherlink.com 1.10,2013-01-18 06:24:00,
2013-01-18 01:39:00,31.5,30.0,30.30,WNW,295,0.0,-999.0,93,-99.99,,,0.00,weatherlink.com 1.10,2013-01-18 06:39:00,
2013-01-18 01:54:00,31.6,30.0,30.29,WNW,295,0.0,-999.0,93,-99.99,,,0.00,weatherlink.com 1.10,2013-01-18 06:54:00,
2013-01-18 02:09:00,31.4,30.0,30.30,WNW,295,0.0,-999.0,93,-99.99,,,0.00,weatherlink.com 1.10,2013-01-18 07:09:00,
2013-01-18 02:25:00,31.2,29.0,30.31,WNW,295,0.0,-999.0,93,-99.99,,,0.00,weatherlink.com 1.10,2013-01-18 07:25:00,
2013-01-18 02:40:00,30.8,29.0,30.32,WNW,295,0.0,-999.0,93,-99.99,,,0.00,weatherlink.com 1.10,2013-01-18 07:40:00,
2013-01-18 02:55:00,30.7,29.0,30.33,WNW,295,0.0,-999.0,93,-99.99,,,0.00,weatherlink.com 1.10,2013-01-18 07:55:00,
2013-01-18 03:10:00,30.7,29.0,30.33,WNW,295,0.0,-999.0,93,-99.99,,,0.00,weatherlink.com 1.10,2013-01-18 08:10:00,
2013-01-18 03:25:00,30.6,29.0,30.33,WNW,295,1.0,-999.0,93,-99.99,,,0.00,weatherlink.com 1.10,2013-01-18 08:25:00,
2013-01-18 03:40:00,30.8,29.0,30.33,WNW,295,0.0,-999.0,93,-99.99,,,0.00,weatherlink.com 1.10,2013-01-18 08:40:00,
2013-01-18 03:55:00,31.1,29.0,30.33,WNW,295,0.0,-999.0,93,-99.99,,,0.00,weatherlink.com 1.10,2013-01-18 08:55:00,
2013-01-18 04:11:00,31.4,30.0,30.33,WNW,295,0.0,-999.0,93,-99.99,,,0.00,weatherlink.com 1.10,2013-01-18 09:11:00,
2013-01-18 04:25:00,31.3,30.0,30.34,WNW,295,0.0,-999.0,93,-99.99,,,0.00,weatherlink.com 1.10,2013-01-18 09:25:00,
2013-01-18 04:41:00,31.4,30.0,30.34,WNW,295,0.0,-999.0,93,-99.99,,,0.00,weatherlink.com 1.10,2013-01-18 09:41:00,
2013-01-18 04:56:00,31.0,29.0,30.34,WNW,295,0.0,-999.0,93,-99.99,,,0.00,weatherlink.com 1.10,2013-01-18 09:56:00,
2013-01-18 05:11:00,30.5,29.0,30.35,WNW,295,0.0,-999.0,92,-99.99,,,0.00,weatherlink.com 1.10,2013-01-18 10:11:00,
2013-01-18 05:26:00,30.1,28.0,30.35,WNW,295,0.0,-999.0,92,-99.99,,,0.00,weatherlink.com 1.10,2013-01-18 10:26:00,
2013-01-18 05:41:00,29.9,28.0,30.36,WNW,295,0.0,-999.0,92,-99.99,,,0.00,weatherlink.com 1.10,2013-01-18 10:41:00,
2013-01-18 05:56:00,29.8,28.0,30.36,WNW,295,0.0,-999.0,92,-99.99,,,0.00,weatherlink.com 1.10,2013-01-18 10:56:00,
2013-01-18 06:11:00,29.6,28.0,30.37,WNW,295,0.0,-999.0,92,-99.99,,,0.00,weatherlink.com 1.10,2013-01-18 11:11:00,
2013-01-18 06:26:00,29.2,27.0,30.37,WNW,295,0.0,-999.0,92,-99.99,,,0.00,weatherlink.com 1.10,2013-01-18 11:26:00,
2013-01-18 06:41:00,29.0,27.0,30.37,WNW,295,0.0,-999.0,92,-99.99,,,0.00,weatherlink.com 1.10,2013-01-18 11:41:00,
2013-01-18 06:56:00,29.3,27.0,30.38,WNW,295,1.0,-999.0,92,-99.99,,,0.00,weatherlink.com 1.10,2013-01-18 11:56:00,
2013-01-18 07:11:00,29.6,28.0,30.39,WNW,295,0.0,-999.0,92,-99.99,,,0.00,weatherlink.com 1.10,2013-01-18 12:11:00,
2013-01-18 07:26:00,29.6,28.0,30.40,WNW,295,0.0,-999.0,92,-99.99,,,0.00,weatherlink.com 1.10,2013-01-18 12:26:00,
2013-01-18 07:42:00,29.4,27.0,30.41,WNW,295,0.0,-999.0,91,-99.99,,,0.00,weatherlink.com 1.10,2013-01-18 12:42:00,
2013-01-18 07:57:00,29.4,27.0,30.43,WNW,295,1.0,-999.0,91,-99.99,,,0.00,weatherlink.com 1.10,2013-01-18 12:57:00,
2013-01-18 08:12:00,29.9,28.0,30.44,WNW,295,0.0,-999.0,91,-99.99,,,0.00,weatherlink.com 1.10,2013-01-18 13:12:00,
2013-01-18 08:27:00,30.7,29.0,30.46,WNW,295,0.0,-999.0,92,-99.99,,,0.00,weatherlink.com 1.10,2013-01-18 13:27:00,
2013-01-18 08:42:00,31.8,30.0,30.46,WNW,295,1.0,-999.0,92,-99.99,,,0.00,weatherlink.com 1.10,2013-01-18 13:42:00,
2013-01-18 08:57:00,33.2,31.0,30.48,WNW,295,0.0,-999.0,92,-99.99,,,0.00,weatherlink.com 1.10,2013-01-18 13:57:00,
2013-01-18 09:12:00,34.0,32.0,30.49,WNW,295,0.0,-999.0,91,-99.99,,,0.00,weatherlink.com 1.10,2013-01-18 14:12:00,
2013-01-18 09:27:00,34.4,32.0,30.50,WNW,295,0.0,-999.0,90,-99.99,,,0.00,weatherlink.com 1.10,2013-01-18 14:27:00,
2013-01-18 09:42:00,35.0,32.0,30.51,SW,234,2.0,-999.0,88,-99.99,,,0.01,weatherlink.com 1.10,2013-01-18 14:42:00,
2013-01-18 09:58:00,35.9,32.0,30.52,WSW,244,0.0,-999.0,87,-99.99,,,0.01,weatherlink.com 1.10,2013-01-18 14:58:00,
2013-01-18 10:13:00,37.1,33.0,30.53,NW,311,0.0,-999.0,84,-99.99,,,0.02,weatherlink.com 1.10,2013-01-18 15:13:00,
2013-01-18 10:28:00,38.4,33.0,30.53,NNW,338,3.0,-999.0,80,-99.99,,,0.02,weatherlink.com 1.10,2013-01-18 15:28:00,
2013-01-18 10:43:00,39.6,34.0,30.54,West,273,1.0,-999.0,79,-99.99,,,0.02,weatherlink.com 1.10,2013-01-18 15:43:00,
2013-01-18 10:58:00,40.6,32.0,30.55,North,360,3.0,-999.0,70,-99.99,,,0.02,weatherlink.com 1.10,2013-01-18 15:58:00,
2013-01-18 11:13:00,41.7,30.0,30.55,NNE,20,0.0,-999.0,63,-99.99,,,0.02,weatherlink.com 1.10,2013-01-18 16:13:00,
2013-01-18 11:28:00,43.0,30.0,30.55,WNW,302,0.0,-999.0,61,-99.99,,,0.02,weatherlink.com 1.10,2013-01-18 16:28:00,
2013-01-18 11:43:00,44.0,30.0,30.54,WSW,255,3.0,-999.0,58,-99.99,,,0.02,weatherlink.com 1.10,2013-01-18 16:43:00,
2013-01-18 11:59:00,44.8,29.0,30.53,NE,39,0.0,-999.0,54,-99.99,,,0.03,weatherlink.com 1.10,2013-01-18 16:59:00,
2013-01-18 12:14:00,45.3,27.0,30.53,East,86,0.0,-999.0,49,-99.99,,,0.03,weatherlink.com 1.10,2013-01-18 17:14:00,
2013-01-18 12:29:00,45.5,27.0,30.53,ENE,68,2.0,-999.0,49,-99.99,,,0.03,weatherlink.com 1.10,2013-01-18 17:29:00,
2013-01-18 12:44:00,46.7,28.0,30.52,North,360,2.0,-999.0,48,-99.99,,,0.03,weatherlink.com 1.10,2013-01-18 17:44:00,
2013-01-18 12:59:00,46.8,28.0,30.52,South,181,0.0,-999.0,48,-99.99,,,0.03,weatherlink.com 1.10,2013-01-18 17:59:00,
2013-01-18 13:14:00,47.4,27.0,30.51,NNW,337,2.0,-999.0,46,-99.99,,,0.03,weatherlink.com 1.10,2013-01-18 18:14:00,
2013-01-18 13:29:00,48.5,25.0,30.51,NW,321,0.0,-999.0,40,-99.99,,,0.03,weatherlink.com 1.10,2013-01-18 18:29:00,
2013-01-18 13:44:00,48.7,27.0,30.51,NW,317,2.0,-999.0,43,-99.99,,,0.03,weatherlink.com 1.10,2013-01-18 18:44:00,
2013-01-18 13:59:00,49.2,26.0,30.50,NNE,13,0.0,-999.0,41,-99.99,,,0.03,weatherlink.com 1.10,2013-01-18 18:59:00,
2013-01-18 14:15:00,50.0,25.0,30.50,NNE,23,2.0,-999.0,38,-99.99,,,0.03,weatherlink.com 1.10,2013-01-18 19:15:00,
2013-01-18 14:30:00,49.7,24.0,30.50,WSW,238,0.0,-999.0,36,-99.99,,,0.03,weatherlink.com 1.10,2013-01-18 19:30:00,
2013-01-18 14:45:00,50.5,25.0,30.50,West,261,1.0,-999.0,37,-99.99,,,0.03,weatherlink.com 1.10,2013-01-18 19:45:00,
2013-01-18 15:00:00,49.9,24.0,30.50,ESE,116,2.0,-999.0,37,-99.99,,,0.03,weatherlink.com 1.10,2013-01-18 20:00:00,
2013-01-18 15:15:00,49.6,24.0,30.50,NE,54,0.0,-999.0,37,-99.99,,,0.03,weatherlink.com 1.10,2013-01-18 20:15:00,
2013-01-18 15:30:00,49.9,24.0,30.50,West,262,2.0,-999.0,36,-99.99,,,0.03,weatherlink.com 1.10,2013-01-18 20:30:00,
2013-01-18 15:45:00,50.3,23.0,30.50,WSW,239,0.0,-999.0,35,-99.99,,,0.03,weatherlink.com 1.10,2013-01-18 20:45:00,
2013-01-18 16:00:00,50.1,25.0,30.51,ESE,113,1.0,-999.0,37,-99.99,,,0.03,weatherlink.com 1.10,2013-01-18 21:00:00,
2013-01-18 16:15:00,49.7,23.0,30.51,East,90,0.0,-999.0,35,-99.99,,,0.03,weatherlink.com 1.10,2013-01-18 21:15:00,
2013-01-18 16:30:00,49.2,25.0,30.51,ENE,66,0.0,-999.0,39,-99.99,,,0.03,weatherlink.com 1.10,2013-01-18 21:30:00,
2013-01-18 16:45:00,48.5,24.0,30.51,ENE,66,2.0,-999.0,39,-99.99,,,0.03,weatherlink.com 1.10,2013-01-18 21:45:00,
2013-01-18 17:00:00,48.1,23.0,30.52,ENE,66,0.0,-999.0,38,-99.99,,,0.03,weatherlink.com 1.10,2013-01-18 22:00:00,
2013-01-18 17:16:00,47.4,26.0,30.52,ENE,66,0.0,-999.0,44,-99.99,,,0.03,weatherlink.com 1.10,2013-01-18 22:16:00,
2013-01-18 17:31:00,46.5,28.0,30.53,ENE,66,0.0,-999.0,49,-99.99,,,0.03,weatherlink.com 1.10,2013-01-18 22:31:00,
2013-01-18 17:46:00,44.9,29.0,30.53,ENE,66,0.0,-999.0,54,-99.99,,,0.03,weatherlink.com 1.10,2013-01-18 22:46:00,
2013-01-18 18:01:00,43.2,28.0,30.53,ENE,66,0.0,-999.0,56,-99.99,,,0.03,weatherlink.com 1.10,2013-01-18 23:01:00,
2013-01-18 18:16:00,41.9,27.0,30.53,ENE,66,1.0,-999.0,57,-99.99,,,0.03,weatherlink.com 1.10,2013-01-18 23:16:00,
2013-01-18 18:31:00,40.9,27.0,30.54,ENE,66,0.0,-999.0,59,-99.99,,,0.03,weatherlink.com 1.10,2013-01-18 23:31:00,
2013-01-18 18:46:00,40.1,27.0,30.54,ENE,66,0.0,-999.0,61,-99.99,,,0.03,weatherlink.com 1.10,2013-01-18 23:46:00,
2013-01-18 19:01:00,39.7,27.0,30.54,ENE,66,0.0,-999.0,60,-99.99,,,0.03,weatherlink.com 1.10,2013-01-19 00:01:00,
2013-01-18 19:16:00,38.8,27.0,30.55,ENE,66,0.0,-999.0,63,-99.99,,,0.03,weatherlink.com 1.10,2013-01-19 00:16:00,
2013-01-18 19:31:00,38.1,27.0,30.55,ENE,66,0.0,-999.0,64,-99.99,,,0.03,weatherlink.com 1.10,2013-01-19 00:31:00,
2013-01-18 19:46:00,38.7,27.0,30.55,ENE,66,0.0,-999.0,62,-99.99,,,0.03,weatherlink.com 1.10,2013-01-19 00:46:00,
2013-01-18 20:01:00,38.8,27.0,30.55,ENE,66,0.0,-999.0,62,-99.99,,,0.03,weatherlink.com 1.10,2013-01-19 01:01:00,
2013-01-18 20:16:00,37.9,27.0,30.54,ENE,66,0.0,-999.0,65,-99.99,,,0.03,weatherlink.com 1.10,2013-01-19 01:16:00,
2013-01-18 20:31:00,36.9,27.0,30.54,ENE,66,0.0,-999.0,67,-99.99,,,0.03,weatherlink.com 1.10,2013-01-19 01:31:00,
2013-01-18 20:47:00,36.1,27.0,30.54,ENE,66,0.0,-999.0,69,-99.99,,,0.03,weatherlink.com 1.10,2013-01-19 01:47:00,
2013-01-18 21:02:00,35.3,27.0,30.54,ENE,66,0.0,-999.0,71,-99.99,,,0.03,weatherlink.com 1.10,2013-01-19 02:02:00,
2013-01-18 21:17:00,34.7,27.0,30.54,ENE,66,0.0,-999.0,73,-99.99,,,0.03,weatherlink.com 1.10,2013-01-19 02:17:00,
2013-01-18 21:32:00,34.1,27.0,30.55,ENE,66,0.0,-999.0,74,-99.99,,,0.03,weatherlink.com 1.10,2013-01-19 02:32:00,
2013-01-18 21:47:00,33.7,27.0,30.55,ENE,66,0.0,-999.0,77,-99.99,,,0.03,weatherlink.com 1.10,2013-01-19 02:47:00,
2013-01-18 22:02:00,33.2,27.0,30.55,ENE,66,0.0,-999.0,78,-99.99,,,0.03,weatherlink.com 1.10,2013-01-19 03:02:00,
2013-01-18 22:32:00,32.1,26.0,30.55,ENE,66,0.0,-999.0,79,-99.99,,,0.03,weatherlink.com 1.10,2013-01-19 03:32:00,
2013-01-18 22:47:00,31.4,27.0,30.55,ENE,66,0.0,-999.0,82,-99.99,,,0.03,weatherlink.com 1.10,2013-01-19 03:47:00,
2013-01-18 23:03:00,30.7,26.0,30.55,ENE,66,0.0,-999.0,83,-99.99,,,0.03,weatherlink.com 1.10,2013-01-19 04:03:00,
2013-01-18 23:17:00,30.3,26.0,30.55,ENE,66,0.0,-999.0,85,-99.99,,,0.03,weatherlink.com 1.10,2013-01-19 04:17:00,
2013-01-18 23:32:00,30.0,26.0,30.54,ENE,66,0.0,-999.0,86,-99.99,,,0.03,weatherlink.com 1.10,2013-01-19 04:32:00,
2013-01-18 23:47:00,29.8,26.0,30.54,ENE,66,0.0,-999.0,87,-99.99,,,0.03,weatherlink.com 1.10,2013-01-19 04:47:00,